Location: Azat
(46.0765°N, 1.7600°E)
Time: 22:55:02
(UTC+00:00)

STARLINK-1245 - Pass Details

Date: 09 April 2020
Orbit: 548 x 551 km, 53.0° (Epoch: 05 June)

Event Time Altitude Azimuth Distance (km) Brightness Sun altitude
Rises 19:54:33 0° 299° (WNW) 2,727 9.2 -14.1°
Reaches altitude 10° 19:56:49 10° 295° (WNW) 1,830 7.7 -14.5°
Maximum altitude 20:00:52 53° 218° (SW) 682 4.1 -15.1°
Enters shadow 20:03:06 24° 151° (SSE) 1,156 4.8 -15.4°
